Location: San Vito
(41.8833°N, 12.9833°E)
Time: 02:09:26
(UTC+00:00)

Cosmos 2082 Rocket - Visible Passes

Search period start: 28 February 2020 00:00
Search period end: 09 March 2020 00:00
Orbit: 834 x 852 km, 71.0° (Epoch: 26 February)

Date Brightness Start Highest point End Pass type
(mag) Time Alt. Az. Time Alt. Az. Time Alt. Az.
28 Feb 4.1 04:52:00 10° SSE 04:56:59 34° ESE 05:02:00 10° NE visible
29 Feb 4.1 04:37:32 10° SSE 04:42:28 33° ESE 04:47:26 10° NE visible
01 Mar 4.1 04:23:06 10° SSE 04:27:57 31° ESE 04:32:51 10° NE visible
02 Mar 4.1 04:08:39 10° SSE 04:13:27 30° ESE 04:18:15 10° NE visible
03 Mar 4.2 03:54:12 10° SSE 03:58:56 29° ESE 04:03:40 10° NE visible
04 Mar 4.2 03:39:46 10° SSE 03:44:25 27° ESE 03:49:05 10° NE visible
05 Mar 4.2 03:25:21 10° SSE 03:29:55 26° ESE 03:34:30 10° NE visible
06 Mar 4.2 03:10:55 10° SSE 03:15:24 25° ESE 03:19:53 10° NE visible
06 Mar 2.5 04:53:47 10° SW 04:59:09 46° WNW 05:04:35 10° NNE visible
07 Mar 4.2 02:56:30 10° SSE 03:00:54 24° ESE 03:05:17 10° NE visible
07 Mar 2.4 04:39:13 10° SW 04:44:37 48° WNW 04:50:04 10° NNE visible
08 Mar 4.2 02:42:30 12° SSE 02:46:23 23° E 02:50:41 10° NE visible
08 Mar 2.4 04:24:38 10° SW 04:30:04 50° WNW 04:35:33 10° NNE visible
